Date,TemperatureHighF,TemperatureAvgF,TemperatureLowF,DewpointHighF,DewpointAvgF,DewpointLowF,HumidityHigh,HumidityAvg,HumidityLow,PressureMaxIn,PressureMinIn,WindSpeedMaxMPH,WindSpeedAvgMPH,GustSpeedMaxMPH,PrecipitationSumIn
2013-1-1,37,32,24,36,30,23,98,96,92,30.17,29.94,6,3,0,0.00
2013-1-2,35,26,20,26,22,19,95,83,57,30.21,30.12,4,1,0,0.00
2013-1-3,42,31,21,32,25,19,95,80,53,30.37,30.20,4,1,0,0.00
2013-1-4,47,34,21,29,24,19,94,71,42,30.40,30.26,5,1,0,0.00
2013-1-5,43,37,29,35,30,23,92,78,69,30.26,30.09,7,2,0,0.00
2013-1-6,46,35,26,33,25,20,92,71,40,30.29,30.15,7,3,0,0.00
2013-1-7,52,36,22,31,24,18,90,66,38,30.27,30.04,6,2,0,0.00
2013-1-8,58,42,29,46,35,23,96,76,54,30.11,29.95,6,1,0,0.00
2013-1-9,54,50,47,47,44,39,98,82,62,30.23,30.10,10,4,0,0.00
2013-1-10,59,50,46,56,47,40,95,89,65,30.10,29.69,9,5,0,0.00
2013-1-11,66,55,44,48,46,42,95,74,49,29.77,29.61,9,5,0,0.00
2013-1-12,58,44,29,52,38,27,94,81,49,29.84,29.67,9,4,0,0.00
2013-1-13,29,23,17,27,20,14,93,87,79,30.29,29.84,4,0,0,0.00
2013-1-14,33,23,16,18,16,13,91,74,50,30.42,30.27,6,2,0,0.00
2013-1-15,34,26,18,23,18,14,88,74,43,30.27,30.10,5,2,0,0.00
2013-1-16,43,29,17,23,19,15,93,70,40,30.14,30.04,6,1,0,0.00
2013-1-17,47,36,26,34,27,20,85,70,47,30.41,30.11,7,3,0,0.00
2013-1-18,56,39,24,33,28,22,93,67,35,30.43,30.13,8,3,0,0.00
2013-1-19,62,49,40,38,34,28,76,57,40,30.13,29.97,9,3,0,0.00
2013-1-20,61,46,32,37,30,19,82,57,37,30.16,30.01,7,2,0,0.00
2013-1-21,39,29,22,21,17,14,72,60,41,30.29,30.16,7,3,0,0.00
2013-1-22,47,32,21,27,21,15,81,65,44,30.25,30.14,5,1,0,0.00
2013-1-23,62,43,26,44,34,22,88,72,51,30.18,30.05,7,2,0,0.00
2013-1-24,44,38,35,35,24,18,70,56,44,30.21,30.01,7,5,0,0.00
2013-1-25,49,38,30,35,31,26,96,77,52,30.16,30.02,4,1,0,0.00
2013-1-26,61,46,35,30,26,21,76,50,23,30.18,30.03,6,2,0,0.00
2013-1-27,60,53,46,56,47,30,90,81,51,30.03,29.80,9,5,0,0.00
2013-1-28,72,66,59,62,60,56,90,83,71,29.84,29.67,10,7,0,0.00
2013-1-29,68,60,46,63,57,45,97,89,80,29.68,29.33,12,5,0,0.00
2013-1-30,46,33,25,45,30,21,97,87,77,29.97,29.36,14,8,0,0.00
2013-1-31,46,33,20,31,23,11,90,69,55,30.36,29.97,10,5,0,0.00
2013-2-1,47,27,14,19,13,8,82,58,32,30.39,30.11,5,2,0,0.00
2013-2-2,53,39,25,33,26,18,81,61,43,30.18,30.10,10,3,0,0.00
2013-2-3,54,45,38,32,27,21,68,51,30,30.18,29.88,8,3,0,0.00
2013-2-4,60,49,40,46,38,26,85,65,49,29.88,29.71,10,3,0,0.00
2013-2-5,64,47,31,50,35,29,95,68,32,29.95,29.80,8,2,0,0.00
2013-2-6,65,50,37,43,37,31,83,62,43,29.99,29.84,6,2,0,0.00
2013-2-7,56,51,44,53,48,40,96,89,79,29.97,29.74,8,3,0,0.00
2013-2-8,53,42,33,41,33,30,89,73,42,30.19,29.96,6,3,0,0.00
2013-2-9,47,40,34,42,34,28,93,78,48,30.12,29.74,7,4,0,0.00
2013-2-10,59,52,42,53,39,27,96,66,34,29.92,29.54,14,8,0,0.00
2013-2-11,54,40,30,29,27,25,84,61,35,30.09,29.92,7,2,0,0.00
2013-2-12,46,38,33,35,30,26,95,72,53,30.05,29.82,5,2,0,0.00
2013-2-13,51,40,33,38,33,32,97,79,50,29.93,29.84,8,4,0,0.00
2013-2-14,57,45,32,37,32,28,85,62,45,30.06,29.86,6,3,0,0.00
2013-2-15,44,35,25,31,22,14,82,60,36,30.23,30.06,9,4,0,0.00
2013-2-16,37,32,24,25,21,16,86,66,47,30.26,30.05,8,4,0,0.00
2013-2-17,63,47,29,34,26,16,67,46,29,30.06,29.72,8,3,0,0.00
2013-2-18,59,51,35,52,40,26,81,68,43,30.00,29.47,17,9,0,0.00
2013-2-19,45,35,25,26,21,18,77,59,39,30.23,29.99,10,4,0,0.00
2013-2-20,35,32,29,31,22,14,91,70,49,30.22,29.98,6,3,0,0.00
2013-2-21,36,33,29,35,30,25,96,90,80,29.99,29.60,9,4,0,0.00
2013-2-22,37,29,22,32,23,18,91,77,56,30.04,29.78,10,5,0,0.00
2013-2-23,45,32,21,26,22,19,92,70,45,30.04,29.88,6,1,0,0.00
2013-2-24,59,43,27,36,30,23,89,64,37,29.91,29.73,6,2,0,0.00
2013-2-25,43,39,37,37,34,30,93,81,64,29.78,29.33,10,5,0,0.00
2013-2-26,36,34,32,34,32,31,96,93,90,29.80,29.28,10,7,0,0.00
2013-2-27,39,34,33,33,30,27,93,85,73,29.99,29.76,12,7,0,0.00
2013-2-28,36,32,29,29,28,26,91,82,72,30.12,29.98,8,6,0,0.00
2013-3-1,32,30,27,27,23,20,87,77,68,30.19,30.08,10,5,0,0.00
2013-3-2,40,30,25,24,22,19,88,71,44,30.26,30.13,7,4,0,0.00
2013-3-3,58,42,25,32,27,20,82,59,36,30.13,29.68,8,3,0,0.00
2013-3-4,66,54,45,47,40,32,86,61,47,29.71,29.48,11,3,0,0.00
2013-3-5,44,38,32,35,27,20,92,65,45,30.22,29.71,15,10,0,0.00
2013-3-6,49,36,23,27,22,18,82,59,35,30.32,30.16,7,3,0,0.00
2013-3-7,64,49,36,32,28,24,68,47,22,30.17,30.03,7,2,0,0.00
2013-3-8,62,53,42,40,35,32,69,53,41,30.12,29.93,8,4,0,0.00
2013-3-9,68,58,51,57,47,36,96,67,48,29.92,29.55,10,4,0,0.00
2013-3-10,55,44,30,54,43,27,96,93,87,29.85,29.52,13,6,0,0.00
2013-3-11,44,34,27,29,26,23,92,74,44,29.96,29.81,11,6,0,0.00
2013-3-12,55,43,30,32,27,22,79,56,32,30.23,29.95,9,4,0,0.00
2013-3-13,52,40,28,27,21,17,76,51,26,30.38,30.23,5,2,0,0.00
2013-3-14,71,52,34,42,33,22,68,50,33,30.28,30.00,11,3,0,0.00
2013-3-15,79,65,50,49,46,41,78,52,31,30.01,29.65,9,4,0,0.00
2013-3-16,76,62,50,52,46,41,72,56,41,29.71,29.60,9,4,0,0.00
2013-3-17,50,44,41,43,41,38,97,89,70,29.74,29.56,7,4,0,0.00
2013-3-18,55,45,38,45,38,29,97,79,40,29.94,29.58,10,4,0,0.00
2013-3-19,57,45,34,30,25,19,78,51,24,30.15,29.91,8,3,0,0.00
2013-3-20,48,38,32,32,24,15,86,58,30,30.26,30.02,9,3,0,0.00
2013-3-21,43,35,32,33,24,11,93,66,27,30.02,29.70,7,4,0,0.00
2013-3-22,40,37,33,38,35,31,95,93,90,29.85,29.73,6,3,0,0.00
2013-3-23,41,38,36,40,37,34,97,95,94,29.83,29.61,5,3,0,0.00
2013-3-24,40,33,27,39,30,22,97,90,77,30.03,29.55,13,8,0,0.00
2013-3-25,34,29,24,26,22,19,88,78,61,30.27,30.02,11,7,0,0.00
2013-3-26,45,32,23,26,23,21,93,70,40,30.36,30.23,6,2,0,0.00
2013-3-27,59,44,26,31,26,22,87,54,25,30.25,30.04,7,2,0,0.00
2013-3-28,69,56,45,49,40,29,74,56,46,30.10,29.98,7,2,0,0.00
2013-3-29,68,58,52,57,52,47,95,80,62,30.07,29.96,4,2,0,0.00
2013-3-30,69,59,53,57,54,-100,96,85,66,29.98,29.74,10,2,0,0.00
2013-3-31,69,58,50,55,47,38,98,73,34,29.85,29.72,14,3,0,0.00
2013-4-1,63,49,41,44,40,34,90,73,46,30.07,29.84,8,3,0,0.00
2013-4-2,43,38,36,36,34,31,94,88,66,30.16,30.06,7,4,0,0.00
2013-4-3,50,43,37,36,28,24,84,58,39,30.17,30.07,10,4,0,0.00
2013-4-4,58,47,40,39,35,31,84,65,38,30.07,29.96,5,2,0,0.00
2013-4-5,71,53,35,41,35,29,84,55,25,30.10,29.87,4,1,0,0.00
2013-4-6,74,62,53,49,44,35,65,52,37,29.88,29.66,11,5,0,0.00
2013-4-7,76,65,51,59,54,48,93,70,53,29.77,29.60,9,4,0,0.00
2013-4-8,71,65,60,61,58,55,92,78,70,29.66,29.57,9,4,0,0.00
2013-4-9,80,71,64,64,60,57,80,69,55,29.63,29.55,7,4,0,0.00
2013-4-10,73,47,37,65,45,36,96,91,68,29.78,29.57,13,6,0,0.00
2013-4-11,51,40,34,36,33,31,96,78,47,29.79,29.66,11,6,0,0.00
2013-4-12,56,44,35,38,33,29,87,66,45,29.93,29.72,10,4,0,0.00
2013-4-13,70,54,41,48,42,35,84,64,41,29.95,29.67,7,2,0,0.00
2013-4-14,79,67,56,53,49,44,71,55,36,29.68,29.39,10,4,0,0.00
2013-4-15,79,67,56,65,58,47,85,72,61,29.68,29.52,8,4,0,0.00
2013-4-16,78,61,51,64,56,49,95,84,62,29.83,29.66,7,3,0,0.00
2013-4-17,82,71,58,69,63,55,97,77,59,29.81,29.47,9,4,0,0.00
2013-4-18,75,50,38,67,46,30,97,86,71,29.88,29.39,13,8,0,0.00
2013-4-19,55,43,33,35,29,26,82,60,37,30.02,29.88,12,6,0,0.00
2013-4-20,68,52,35,41,35,30,85,57,30,30.11,29.98,5,1,0,0.00
2013-4-21,70,58,48,43,40,36,74,52,30,30.14,29.99,8,3,0,0.00
2013-4-22,72,60,45,46,42,38,78,54,35,30.06,29.77,6,2,0,0.00
2013-4-23,60,50,36,54,45,34,95,84,59,30.00,29.68,9,4,0,0.00
2013-4-24,54,43,34,34,32,27,94,69,37,30.23,29.99,7,4,0,0.00
2013-4-25,70,53,32,40,33,28,87,52,23,30.28,30.09,4,1,0,0.00
2013-4-26,58,52,48,50,46,36,95,81,43,30.19,29.98,9,4,0,0.00
2013-4-27,57,53,50,56,52,49,97,96,93,30.01,29.82,7,3,0,0.00
2013-4-28,76,60,50,56,51,48,97,75,43,29.91,29.75,5,2,0,0.00
2013-4-29,83,68,51,62,55,49,94,66,40,29.77,29.62,8,3,0,0.00
2013-4-30,82,72,60,58,52,46,84,52,29,29.72,29.65,9,3,0,0.00
2013-5-1,84,71,58,64,57,50,85,64,40,29.92,29.72,6,2,0,0.00
2013-5-2,63,49,34,58,45,32,94,89,79,30.15,29.89,9,6,0,0.00
2013-5-3,47,38,33,38,34,31,96,84,55,30.14,29.86,11,7,0,0.00
2013-5-4,44,39,34,39,36,33,96,89,78,29.92,29.75,8,3,0,0.00
2013-5-5,59,48,35,49,42,34,97,83,61,30.00,29.91,8,4,0,0.00
2013-5-6,64,54,49,54,50,47,96,86,68,29.98,29.89,5,3,0,0.00
2013-5-7,77,62,44,57,50,43,98,70,39,29.97,29.85,4,1,0,0.00
2013-5-8,80,66,52,61,55,49,92,70,44,29.92,29.76,7,2,0,0.00
2013-5-9,77,65,58,63,59,56,97,84,58,29.84,29.73,8,3,0,0.00
2013-5-10,67,61,55,62,55,-100,98,88,71,29.93,29.75,7,3,0,0.00
2013-5-11,73,59,48,56,48,-100,97,70,33,30.09,29.92,8,3,0,0.00
2013-5-12,67,56,42,49,39,33,79,55,31,30.16,30.02,5,1,0,0.00
2013-5-13,81,65,47,59,50,44,89,63,39,30.05,29.91,7,2,0,0.00
2013-5-14,87,73,61,60,54,50,74,54,31,29.92,29.80,8,3,0,0.00
2013-5-15,74,68,62,66,60,51,95,77,56,29.84,29.72,7,2,0,0.00
2013-5-16,69,60,61,64,41,-100,96,91,82,29.74,29.68,3,1,0,0.00
2013-5-17,82,69,57,66,58,-100,98,79,53,29.79,29.72,3,1,0,0.00
2013-5-18,84,75,64,74,69,62,96,82,70,29.78,29.63,6,2,0,0.00
2013-5-19,88,78,72,70,67,63,91,69,44,29.69,29.48,9,5,0,0.00
2013-5-20,78,70,62,70,66,59,95,85,73,29.66,29.53,14,3,0,0.00
2013-5-21,65,61,58,61,59,56,97,92,85,29.78,29.44,11,4,0,0.00
2013-5-22,74,64,53,61,57,52,98,80,56,29.81,29.66,10,3,0,0.00
2013-5-23,74,65,55,62,58,54,97,80,61,30.01,29.81,5,2,0,0.00
2013-5-24,78,67,57,63,57,53,89,73,57,30.14,30.01,6,4,0,0.00
2013-5-25,83,71,59,67,60,51,81,68,57,30.09,29.91,6,3,0,0.00
2013-5-26,82,73,64,68,64,61,93,75,56,29.98,29.83,8,3,0,0.00
2013-5-27,83,75,67,69,66,60,93,75,57,29.85,29.65,9,5,0,0.00
2013-5-28,83,76,72,67,66,63,84,72,57,29.72,29.61,10,6,0,0.00
2013-5-29,79,75,69,68,66,64,85,73,64,29.73,29.59,9,5,0,0.00
2013-5-30,78,70,62,69,65,60,95,84,70,29.73,29.56,11,5,0,0.00
2013-5-31,85,75,62,73,69,60,97,83,65,29.65,29.49,10,4,0,0.00
2013-6-1,77,69,61,72,64,56,97,83,63,29.85,29.49,11,4,0,0.00
2013-6-2,67,61,55,58,56,53,95,83,68,29.92,29.84,6,2,0,0.00
2013-6-3,79,65,48,62,56,47,98,76,48,29.93,29.77,3,1,0,0.00
2013-6-4,79,69,63,67,62,58,88,80,65,29.85,29.75,6,2,0,0.00
2013-6-5,77,69,63,68,64,60,97,85,69,29.86,29.72,10,3,0,0.00
2013-6-6,73,66,59,64,61,56,98,84,66,29.81,29.74,7,2,0,0.00
2013-6-7,76,65,54,58,55,52,94,73,46,29.85,29.76,5,2,0,0.00
2013-6-8,81,68,53,61,57,51,95,69,48,29.81,29.70,4,2,0,0.00
2013-6-9,82,73,65,66,61,59,90,69,47,29.76,29.69,7,2,0,0.00
2013-6-10,90,78,65,71,66,59,82,67,46,29.78,29.70,8,4,0,0.00
2013-6-11,92,81,68,71,68,65,91,67,42,29.83,29.74,7,3,0,0.00
2013-6-12,90,82,74,72,70,67,87,70,51,29.82,29.72,10,4,0,0.00
2013-6-13,89,80,72,71,69,65,90,70,46,29.85,29.76,4,2,0,0.00
2013-6-14,91,80,70,75,71,66,89,74,58,29.86,29.76,4,2,0,0.00
2013-6-15,89,78,69,73,69,65,95,76,57,29.88,29.77,8,3,0,0.00
2013-6-16,88,77,69,74,70,66,96,81,60,29.85,29.75,7,2,0,0.00
2013-6-17,72,69,66,69,67,64,96,91,83,29.81,29.72,5,2,0,0.00
2013-6-18,85,74,63,69,66,62,99,78,49,29.89,29.80,3,1,0,0.00
2013-6-19,87,76,63,69,64,61,96,70,45,29.91,29.81,6,2,0,0.00
2013-6-20,89,76,67,72,67,64,91,76,57,29.91,29.85,6,2,0,0.00
2013-6-22,89,86,79,74,71,70,74,63,55,29.90,29.78,6,4,0,0.00
2013-6-23,90,81,72,73,70,68,91,72,53,29.83,29.75,9,4,0,0.00
2013-6-24,89,81,73,73,70,67,87,71,52,29.88,29.78,6,4,0,0.00
2013-6-25,87,80,74,72,70,68,87,71,55,29.82,29.68,9,4,0,0.00
2013-6-26,92,82,75,77,73,69,91,75,57,29.76,29.67,7,3,0,0.00
2013-6-27,96,85,73,76,74,71,97,72,46,29.81,29.69,4,1,0,0.00
2013-6-28,90,83,74,76,70,61,86,67,45,29.77,29.66,7,3,0,0.00
2013-6-29,86,76,66,63,57,53,78,54,34,29.73,29.65,11,5,0,0.00
2013-6-30,77,70,62,62,59,55,87,70,57,29.82,29.69,8,3,0,0.00
2013-7-1,80,70,61,62,57,49,91,65,36,29.90,29.82,8,3,0,0.00
2013-7-2,81,70,56,59,54,50,86,58,36,29.94,29.88,6,2,0,0.00
2013-7-3,85,72,56,60,53,47,90,56,29,29.97,29.85,4,1,0,0.00
2013-7-4,86,74,60,62,57,54,83,58,33,29.92,29.80,4,1,0,0.00
2013-7-5,89,77,60,62,59,54,88,57,31,29.89,29.77,5,2,0,0.00
2013-7-6,90,75,64,66,61,57,87,64,33,29.86,29.78,4,1,0,0.00
2013-7-7,91,80,68,70,65,59,86,61,35,29.89,29.82,5,2,0,0.00
2013-7-8,93,81,69,72,68,65,88,67,43,29.93,29.85,5,2,0,0.00
2013-7-9,94,84,72,72,70,68,89,65,45,29.92,29.79,7,3,0,0.00
2013-7-10,98,85,73,72,67,-100,83,59,41,29.85,29.72,5,2,0,0.00
2013-7-11,94,83,71,75,69,62,90,64,38,29.83,29.74,6,2,0,0.00
2013-7-12,93,82,72,71,65,61,72,58,42,29.88,29.79,5,2,0,0.00
2013-7-13,89,78,66,64,60,57,83,55,40,29.89,29.80,5,2,0,0.00
2013-7-14,87,78,65,62,59,50,81,53,28,29.90,29.80,6,2,0,0.00
2013-7-15,90,78,70,70,66,62,91,68,45,30.01,29.88,6,3,0,0.00
2013-7-16,88,77,69,73,70,67,95,80,55,30.11,30.01,5,1,0,0.00
2013-7-17,93,81,69,72,68,64,97,68,38,30.16,30.03,5,1,0,0.00
2013-7-18,93,83,69,72,68,64,91,64,38,30.05,29.86,5,1,0,0.00
2013-7-19,95,81,72,72,69,66,85,67,40,29.88,29.75,5,2,0,0.00
2013-7-20,93,79,70,73,69,67,91,74,47,29.80,29.66,6,2,0,0.00
2013-7-21,84,75,70,76,71,67,95,88,73,29.79,29.68,5,1,0,0.00
2013-7-22,89,77,67,74,69,63,89,77,56,29.83,29.68,10,3,0,0.00
2013-7-23,95,84,71,77,73,68,94,71,51,29.76,29.62,9,3,0,0.00
2013-7-24,86,76,67,71,69,65,95,81,62,29.86,29.68,10,3,0,0.00
2013-7-25,87,77,67,72,68,65,93,76,50,29.93,29.86,3,1,0,0.00
2013-7-26,75,72,67,71,69,66,96,92,86,29.89,29.83,3,1,0,0.00
2013-7-27,81,71,64,67,64,60,98,79,53,29.91,29.82,4,1,0,0.00
2013-7-28,80,70,64,66,63,59,89,78,57,29.89,29.84,5,1,0,0.00
2013-7-29,86,77,68,74,69,64,92,79,65,29.91,29.82,7,3,0,0.00
2013-7-30,86,78,70,75,72,68,98,85,66,29.89,29.82,9,2,0,0.00
2013-7-31,87,80,73,77,73,70,98,82,64,29.90,29.83,7,1,0,0.00
2013-8-1,89,78,67,70,68,64,95,74,45,29.93,29.82,3,1,0,0.00
2013-8-2,88,78,72,78,72,68,91,83,69,29.83,29.71,5,2,0,0.00
2013-8-3,86,78,68,76,73,67,96,83,66,29.93,29.72,7,2,0,0.00
2013-8-4,78,75,72,75,72,70,96,92,83,29.96,29.84,5,2,0,0.00
2013-8-5,91,81,72,80,74,70,96,82,62,29.88,29.68,6,2,0,0.00
2013-8-6,93,82,73,77,74,69,89,77,59,29.74,29.63,5,2,0,0.00
2013-8-7,91,81,74,80,75,72,93,82,64,29.79,29.65,5,2,0,0.00
2013-8-8,83,75,68,75,71,67,97,88,69,29.83,29.69,10,2,0,0.00
2013-8-9,84,76,70,73,71,68,96,86,69,29.88,29.75,6,2,0,0.00
2013-8-10,83,76,69,73,70,68,97,84,67,29.96,29.88,5,3,0,0.00
2013-8-11,88,78,70,75,71,68,95,81,59,29.93,29.85,4,1,0,0.00
2013-8-12,82,76,71,76,72,69,96,88,72,29.90,29.79,7,1,0,0.00
2013-8-13,78,71,68,73,67,-100,95,91,83,29.91,29.82,3,1,0,0.00
2013-8-14,78,70,63,64,59,-100,91,76,54,30.01,29.90,5,2,0,0.00
2013-8-15,77,60,56,60,40,-100,92,68,51,30.00,29.88,4,1,0,0.00
2013-8-16,77,66,62,62,55,-100,87,73,57,29.99,29.90,4,1,0,0.00
2013-8-17,78,66,57,63,58,-100,91,76,53,30.01,29.92,4,1,0,0.00
2013-8-18,84,72,61,67,62,58,93,73,46,30.01,29.91,3,1,0,0.00
2013-8-19,86,69,62,68,52,-100,93,72,45,29.98,29.86,3,1,0,0.00
2013-8-20,87,74,63,68,62,-100,92,71,44,29.95,29.86,4,1,0,0.00
2013-8-21,89,77,64,70,66,61,90,72,48,29.97,29.89,5,1,0,0.00
2013-8-22,90,79,67,72,68,64,90,72,47,29.97,29.87,4,1,0,0.00
2013-8-23,91,80,67,73,68,63,93,70,41,29.93,29.84,4,1,0,0.00
2013-8-24,90,79,69,73,68,-100,91,72,51,29.99,29.89,4,1,0,0.00
2013-8-25,92,81,71,74,71,67,90,72,44,30.05,29.97,4,1,0,0.00
2013-8-26,90,80,70,75,71,67,91,75,56,30.06,29.94,4,1,0,0.00
2013-8-27,88,74,66,71,67,63,91,79,48,29.98,29.92,5,1,0,0.00
2013-8-28,91,86,75,72,71,68,82,61,51,29.92,29.86,5,2,0,0.00
2013-8-29,93,81,70,73,70,67,90,71,46,29.92,29.83,5,1,0,0.00
2013-8-30,94,83,72,73,71,69,91,69,46,29.84,29.71,6,2,0,0.00
2013-8-31,96,82,72,74,69,-100,89,67,44,29.75,29.64,5,2,0,0.00
2013-9-1,91,79,74,74,70,68,86,75,48,29.75,29.64,7,2,0,0.00
2013-9-2,84,76,68,70,66,62,90,73,48,29.84,29.74,5,2,0,0.00
2013-9-3,86,69,62,66,51,-100,90,63,37,29.91,29.83,3,1,0,0.00
2013-9-4,85,70,62,66,57,51,76,64,49,29.98,29.90,0,0,0,0.00
2013-9-5,92,76,63,65,60,52,86,59,39,30.03,29.94,3,0,0,0.00
2013-9-6,90,75,62,66,62,59,90,68,41,29.99,29.86,4,1,0,0.00
2013-9-7,94,78,65,70,63,-100,89,66,39,29.90,29.78,4,1,0,0.00
2013-9-8,94,81,68,70,67,64,87,65,42,29.82,29.72,5,2,0,0.00
2013-9-9,95,81,67,68,66,61,88,62,34,29.85,29.77,6,2,0,0.00
2013-9-10,94,80,66,69,64,60,87,63,33,29.97,29.83,6,2,0,0.00
2013-9-11,92,80,68,71,67,65,89,67,44,29.99,29.88,5,1,0,0.00
2013-9-12,91,79,69,72,68,65,90,72,48,29.95,29.83,9,2,0,0.00
2013-9-13,83,73,62,68,57,51,83,60,38,29.93,29.83,8,4,0,0.00
2013-9-14,81,67,55,56,51,-100,88,61,35,29.94,29.84,7,2,0,0.00
2013-9-15,89,73,60,66,59,52,77,64,45,29.89,29.84,6,2,0,0.00
2013-9-16,78,72,68,69,66,63,90,82,67,30.04,29.89,5,2,0,0.00
2013-9-17,83,74,67,70,66,64,90,78,56,29.99,29.85,6,2,0,0.00
2013-9-18,78,72,70,68,66,64,84,82,69,29.86,29.79,2,1,0,0.00
2013-9-19,90,79,70,70,68,65,86,70,48,29.83,29.70,9,3,0,0.00
2013-9-20,76,66,58,68,62,53,94,87,69,29.83,29.75,9,3,0,0.00
2013-9-21,75,61,49,55,49,-100,93,69,41,29.90,29.79,7,2,0,0.00
2013-9-22,78,62,47,54,50,45,93,67,37,29.85,29.74,5,1,0,0.00
2013-9-23,80,66,51,58,54,48,91,67,41,29.79,29.66,6,2,0,0.00
2013-9-24,76,66,57,60,57,54,89,73,54,29.76,29.70,10,3,0,0.00
2013-9-25,80,68,55,63,59,52,92,75,52,29.75,29.67,5,2,0,0.00
2013-9-26,82,65,57,63,58,54,92,81,51,29.81,29.71,5,1,0,0.00
2013-9-30,82,68,56,67,61,54,94,79,53,29.80,29.71,6,2,0,0.00
2013-10-1,78,74,70,68,68,67,89,81,70,29.84,29.79,3,1,0,0.00
2013-10-2,82,73,66,71,68,64,94,82,64,29.87,29.75,7,2,0,0.00
2013-10-3,84,75,66,71,67,64,92,79,60,29.79,29.68,11,5,0,0.00
2013-10-4,84,75,69,71,68,64,91,78,60,29.76,29.68,10,4,0,0.00
2013-10-5,72,57,47,69,54,45,93,91,84,29.91,29.73,10,3,0,0.00
2013-10-6,61,53,45,47,45,41,93,75,56,29.91,29.84,10,4,0,0.00
2013-10-7,70,57,44,50,46,42,92,70,41,30.04,29.90,7,2,0,0.00
2013-10-8,74,59,45,52,48,43,93,70,40,30.03,29.93,7,2,0,0.00
2013-10-9,76,61,45,56,49,43,92,69,38,29.99,29.91,5,1,0,0.00
2013-10-10,78,62,47,60,53,45,93,75,47,29.97,29.80,6,2,0,0.00
2013-10-11,75,66,55,67,60,52,91,82,68,29.80,29.71,11,4,0,0.00
2013-10-12,69,64,60,64,59,-100,93,87,80,30.03,29.75,8,3,0,0.00
2013-10-13,73,63,58,57,53,48,86,70,55,30.19,30.03,8,4,0,0.00
2013-10-14,67,62,57,62,55,48,91,79,67,30.12,29.84,8,4,0,0.00
2013-10-15,65,59,52,63,56,48,92,90,81,29.93,29.75,8,4,0,0.00
2013-10-16,60,52,43,49,44,40,91,77,57,30.01,29.88,8,3,0,0.00
2013-10-17,64,52,41,48,44,39,93,78,52,29.95,29.85,7,2,0,0.00
2013-10-18,61,49,41,51,45,39,92,85,66,29.96,29.85,7,2,0,0.00
2013-10-19,59,45,36,42,37,-100,92,76,44,30.04,29.92,8,4,0,0.00
2013-10-20,67,53,38,45,41,36,92,68,36,29.93,29.77,9,3,0,0.00
2013-10-21,55,49,39,49,43,36,90,80,61,30.00,29.84,6,1,0,0.00
2013-10-22,66,50,36,48,41,34,93,72,49,29.99,29.84,12,4,0,0.00
2013-10-23,63,49,37,44,39,34,90,69,41,30.06,29.89,5,1,0,0.00
2013-10-24,54,46,39,41,36,30,92,71,44,30.30,29.98,9,3,0,0.00
2013-10-25,60,50,32,35,32,26,89,52,32,30.39,30.11,8,3,0,0.00
2013-10-26,63,53,43,55,45,-100,88,76,69,30.12,29.98,8,3,0,0.00
2013-10-27,65,52,42,51,43,34,91,73,34,29.99,29.86,3,1,0,0.00
2013-10-28,67,57,42,56,50,-100,93,82,62,30.04,29.91,6,2,0,0.00
2013-10-29,69,64,56,65,60,53,91,88,84,30.02,29.83,11,6,0,0.00
2013-10-30,67,65,62,64,62,59,92,90,88,29.89,29.66,9,4,0,0.00
2013-10-31,71,61,50,64,57,47,91,87,51,29.67,29.35,16,6,0,0.00
2013-11-1,67,56,47,48,44,41,86,67,39,29.88,29.62,7,3,0,0.00
2013-11-2,55,46,37,43,36,-100,89,73,52,30.11,29.88,10,4,0,0.00
2013-11-3,62,47,33,43,38,31,92,72,44,30.12,29.91,10,4,0,0.00
2013-11-4,58,54,51,52,47,42,89,76,68,30.03,29.90,11,6,0,0.00
2013-11-5,62,58,54,59,55,51,91,91,89,30.02,29.81,7,5,0,0.00
2013-11-6,62,45,34,59,42,32,92,89,78,30.24,29.75,12,6,0,0.00
2013-11-7,61,44,29,43,35,27,92,75,39,30.36,30.24,6,2,0,0.00
2013-11-8,64,48,35,43,38,33,92,70,36,30.26,29.97,11,4,0,0.00
2013-11-9,64,52,43,46,41,-100,88,69,49,30.15,29.98,6,2,0,0.00
2013-11-10,68,55,45,47,44,41,90,67,41,30.25,30.15,6,1,0,0.00
2013-11-11,67,54,42,54,47,38,89,77,62,30.28,30.05,10,3,0,0.00
2013-11-12,42,33,25,38,22,16,87,64,38,30.61,30.28,10,6,0,0.00
2013-11-13,49,34,22,24,20,16,86,59,31,30.61,30.24,6,3,0,0.00
2013-11-14,52,41,27,35,25,20,77,54,32,30.24,29.94,9,4,0,0.00
2013-11-15,59,50,43,48,43,34,90,78,63,29.94,29.73,10,5,0,0.00
2013-11-16,69,62,51,64,55,-100,91,83,72,29.74,29.48,16,10,0,0.00
2013-11-17,72,66,52,65,46,23,84,53,28,29.93,29.39,17,9,0,0.00
2013-11-18,63,50,39,38,29,23,79,49,23,30.14,29.91,8,3,0,0.00
2013-11-19,59,51,42,35,26,18,62,41,26,30.13,29.94,9,4,0,0.00
2013-11-20,61,53,44,41,27,14,54,38,23,29.94,29.79,12,5,0,0.00
2013-11-21,57,50,43,48,46,40,92,87,55,30.13,29.86,11,4,0,0.00
2013-11-22,40,33,31,38,31,29,93,92,91,30.44,30.16,12,7,0,0.00
2013-11-23,39,32,24,30,22,-100,91,71,47,30.58,30.42,9,6,0,0.00
2013-11-24,32,26,19,18,15,12,77,63,51,30.60,30.27,10,4,0,0.00
2013-11-25,36,33,30,31,26,17,88,74,53,30.27,30.09,5,2,0,0.00
2013-11-26,45,34,27,31,27,19,88,74,52,30.24,30.04,15,7,0,0.00
2013-11-27,38,27,18,18,14,12,79,59,36,30.36,30.23,11,3,0,0.00
2013-12-2,65,49,39,52,44,37,92,83,56,29.77,29.54,4,1,0,0.00
2013-12-3,70,52,39,52,45,37,92,80,44,29.57,29.41,8,2,0,0.00
2013-12-4,60,46,32,50,42,29,91,86,64,29.83,29.41,11,5,0,0.00
2013-12-5,31,24,20,28,20,17,91,84,68,30.21,29.85,10,7,0,0.00
2013-12-6,20,18,16,18,14,9,90,85,71,30.49,30.16,9,6,0,0.00
2013-12-7,23,16,6,14,6,-100,80,68,52,30.58,30.26,8,4,0,0.00
2013-12-8,27,24,22,25,20,12,92,85,66,30.26,29.97,6,3,0,0.00
2013-12-14,36,32,25,34,28,-100,92,89,86,30.16,29.74,12,6,0,0.00
2013-12-15,50,34,19,36,28,17,92,80,55,30.19,30.05,6,2,0,0.00
2013-12-16,62,48,40,39,34,32,74,61,37,30.04,29.96,7,4,0,0.00
2013-12-17,58,43,31,38,32,27,91,67,37,30.19,30.01,11,2,0,0.00
2013-12-18,62,45,29,40,33,26,87,65,39,30.18,29.85,13,5,0,0.00
2013-12-19,60,56,51,54,49,41,85,78,63,29.85,29.58,13,9,0,0.00
2013-12-20,63,43,32,58,40,30,92,89,84,29.77,29.57,10,5,0,0.00